This demonstration page uses our WeatherBlox Daily Observations layout. Learn more.

Left ArrowRight Arrow

47.50024, -111.30081

Hourly Observations for June 7, 2020

Temp ( °F °C ) Dew Point ( °F °C ) Humidity (%) Winds ( mph kmh ) Pressure ( in mb ) Visibility ( mi km ) Precip ( " mm )
12:53 am 00:53 Cloudy 49 9.4 45 7.2 86 86 SSW 14 22 29.49 999 10 16 0.00 0.00
1:53 am 01:53 Cloudy 49 9.4 45 7.2 86 86 SSW 12 19 29.47 998 10 16 0.00 0.00
2:53 am 02:53 Cloudy 50 10 45 7.2 83 83 SW 15 24 29.46 998 10 16 0.00 0.00
3:53 am 03:53 Cloudy 50 10 44 6.7 80 80 SW 12 19 29.47 998 10 16 0.00 0.00
4:53 am 04:53 Cloudy 49 9.4 43 6.1 80 80 SW 13 20 29.48 998 10 16 0.00 0.00
5:53 am 05:53 Cloudy 48 8.9 42 5.6 80 80 SW 13 20 29.51 999 10 16 0.00 0.00
6:53 am 06:53 Sunny 49 9.4 41 5 74 74 SW 16 26 29.52 1000 10 16 0.00 0.00
7:53 am 07:53 Sunny 51 10.6 41 5 69 69 SW 17 28 29.53 1000 10 16 0.00 0.00
8:53 am 08:53 Sunny 55 12.8 40 4.4 57 57 SW 20 31 29.53 1000 10 16 0.00 0.00
9:53 am 09:53 Sunny 58 14.4 40 4.4 51 51 SW 21 33 29.54 1000 10 16 0.00 0.00
10:53 am 10:53 Mostly Sunny 61 16.1 40 4.4 46 46 SW 15 24 29.53 1000 10 16 0.00 0.00
11:53 am 11:53 Mostly Sunny 62 16.7 39 3.9 43 43 SW 22 35 29.53 1000 10 16 0.00 0.00
12:53 pm 12:53 Mostly Sunny 64 17.8 39 3.9 40 40 WSW 10 17 29.53 1000 10 16 0.00 0.00
1:53 pm 13:53 Partly Cloudy 62 16.7 39 3.9 43 43 WSW 10 17 29.55 1001 10 16 0.00 0.00
2:53 pm 14:53 Mostly Cloudy 65 18.3 38 3.3 37 37 WSW 12 19 29.52 1000 10 16 0.00 0.00
3:53 pm 15:53 Mostly Cloudy 64 17.8 37 2.8 37 37 NW 7 11 29.53 1000 10 16 0.00 0.00
4:53 pm 16:53 Partly Cloudy 65 18.3 37 2.8 36 36 SW 8 13 29.54 1001 10 16 0.00 0.00
5:53 pm 17:53 Mostly Cloudy 59 15 42 5.6 54 54 NNW 18 30 29.57 1001 10 16 0.00 0.00
6:50 pm 18:50 Cloudy with Thunderstorms 52 11 45 7 77 77 WNW 12 19 29.59 1002 2 3 0.02 0.51
6:53 pm 18:53 Cloudy with Thunderstorms 51 10.6 44 6.7 77 77 WNW 9 15 29.65 1004 1 2 0.02 0.51
7:08 pm 19:08 Cloudy with Thunderstorms 50 10 44 6.7 80 80 NNW 6 9 29.60 1002 3 4 0.16 4.06
7:10 pm 19:10 Mostly Cloudy with Nearby Thunderstorms 50 10 44 6.7 80 80 NNW 5 7 29.60 1002 5 8 0.16 4.06
7:46 pm 19:46 Partly Cloudy with Nearby Thunderstorms 52 11.1 45 7.2 77 77 N 8 13 29.59 1002 N/A 0.16 4.06
7:53 pm 19:53 Mostly Sunny 52 11.1 45 7.2 77 77 NNW 7 11 29.64 1004 10 16 0.16 4.06
8:53 pm 20:53 Cloudy 51 10.6 45 7.2 80 80 Calm 29.67 1005 10 16 0.00 0.00
9:08 pm 21:08 Cloudy 51 10.6 45 7.2 80 80 W 5 7 29.64 1004 10 16 0.00 0.00
9:50 pm 21:50 Cloudy with Thunderstorms 50 10 46 8 88 88 W 10 17 29.68 1005 10 16 0.04 1.02
9:53 pm 21:53 Cloudy with Thunderstorms 50 10 46 7.8 86 86 WNW 9 15 29.69 1006 10 16 0.04 1.02
10:11 pm 22:11 Cloudy with Nearby Thunderstorms 49 9.4 46 7.8 90 90 W 7 11 29.70 1006 10 16 0.00 0.00
10:33 pm 22:33 Cloudy 49 9.4 45 7.2 86 86 NNW 8 13 29.70 1006 10 16 0.00 0.00
10:43 pm 22:43 Mostly Cloudy 49 9.4 45 7.2 86 86 NW 10 17 29.70 1006 10 16 0.00 0.00
10:47 pm 22:47 Mostly Cloudy 48 9 45 7 87 87 NW 13 20 29.70 1006 10 16 0.00 0.00
10:53 pm 22:53 Cloudy 47 8.3 43 6.1 86 86 NW 14 22 29.70 1006 10 16 0.00 0.00
11:08 pm 23:08 Partly Cloudy 47 8.3 43 6.1 86 86 NNW 12 19 29.71 1006 10 16 0.00 0.00
11:17 pm 23:17 Mostly Cloudy 47 8.3 43 6.1 86 86 NW 9 15 29.72 1006 10 16 0.00 0.00
11:24 pm 23:24 Mostly Cloudy 47 8.3 43 6.1 86 86 NNW 12 19 29.72 1006 10 16 0.00 0.00
11:53 pm 23:53 Cloudy 47 8.3 44 6.7 90 90 N 10 17 29.71 1006 10 16 0.00 0.00

Powered by AerisWeather